COSMOS 2478 (746)

Last updated on May 30, 2016, 1:44 a.m. UTC

1 37938U 11071A   16150.67861852 -.00000011  00000-0  00000+0 0  9998
2 37938  65.2466  77.8426 0013949 245.4604  47.2031  2.13088541 35160
UTC
Height (km)
Latitude
Longitude
Inclination
Orbital Period
UTC large
Height (km)
Speed (km/s)
/
Latitude / Longitude
Inclination (degrees)
Orbital Period (minutes)
Azimuth
Elevation
Range (km)
Doppler Factor
iOS Compass Heading
iOS Angle